Weather in Shtykovo

Russia / Primorsky Krai     43°23′02″N   132°22′10″E
temp.,
°C
wind,
m/s
gust,
m/s
humid.,
%
clouds,
%
prec.,
mm/h
press.,
hPa
HPBL,
m
27 february, sat
sat2701:00−13nnw22870 0.0 103553
04:00−14n228513 0.0 103556
07:00−14n128318 0.0 103627
10:00−10n11589 0.0 1035199
13:00−5s23453 0.0 1033364
16:00−4s5105744 0.0 1031642
19:00−7sse5127880 0.0 1030514
22:00−5sse5149489 0.1 1030688
28 february, sun
sun2801:00−4sse41396100 0.2 1029574
04:00−2sse41395100 0.3 1028558
07:00−1se4994100 0.0 1028335
10:00+1sse489196 0.0 1027507
13:00+3s5985100 0.0 1026648
16:00+2s4988100 0.0 1023676
19:000se2496100 0.0 1024126
22:000sse1297100 0.1 102526
1 march, mon
mon101:00−3n4891100 1.8 1025335
04:00−6n6137792 1.8 1028620
07:00−7n51270100 0.0 1029827
10:00−8n5957100 0.0 1033798
13:00−7n61053100 0.0 1032914
16:00−8nne61054100 0.0 1031898
19:00−9nne41059100 0.0 1031724
22:00−10n3759100 0.0 1032710
2 march, tue
tue201:00−10n41055100 0.0 1030723
04:00−11n51150100 0.0 1029810
07:00−13n61254100 0.0 1029743
10:00−12n61258100 0.0 1029739
13:00−9n7115831 0.0 1027980
16:00−9n7125616 0.0 1027907
19:00−12n511650 0.0 1028707
22:00−13n39660 0.0 1030479
3 march, wed
wed301:00−14n24790 0.0 1030203
04:00−15n22820 0.0 1030102
07:00−15n11790 0.0 102929
10:00−11sse225133 0.0 1028181
13:00−6s51148100 0.0 1026795
16:00−4s8156499 0.0 10221113
19:00−4s71495100 0.6 10211006
22:00−3sse31398100 2.2 1020647